Flag for Brazil Weather past 2 weeks in Belo Horizonte, Minas Gerais, Brazil

Now
61 °F

Clear.


Feels Like: 61 °F
Forecast: 61 / 78 °F
Wind: 10 mph from Southeast

Location: Belo Horizonte Airport

Current Time: Apr 26, 2015 at 6:57:26 AM

Latest Report: Apr 26, 2015 at 6:00 AM


Visibility: 10 mi

Pressure: 30.12 "Hg

Humidity: 83%

Dew point: 55 °F

Location of Belo HorizonteLocation

Historic Weather in Belo Horizonte — Graph

°F

Belo Horizonte temperature yesterday

Maximum temperature yesterday: 81 °F (at 2:00 PM)
Minimum temperature yesterday: 66 °F (at 5:00 AM)
Average temperature yesterday: 72 °F

Past Weeks' High & Low Weather Summary

 TemperatureHumidityPressure
High86 °F (Apr 19, 1:00 PM)94% (Apr 21, 10:00 PM)30.21 "Hg (Apr 21, 10:00 PM)
Low61 °F (Apr 26, 5:00 AM)30% (Apr 15, 2:00 PM)29.92 "Hg (Apr 21, 5:00 PM)
Average73 °F69%30.08 "Hg
* Reported Apr 11 5:00 AM — Apr 26 5:00 AM, Belo Horizonte, Weather by CustomWeather, © 2015

Note: Actual official high and low records may vary slightly from our data, if they occured in-between our weather recording intervals... More about our weather records

Advertising

Belo Horizonte weather history for previous 24 hours

 ConditionsComfort  
Time TempWeatherWind HumidityBarometerVisibility
5:00 AM
Sun, Apr 26
61 °FClear.8 mph83%30.09 "Hg10 mi
4:00 AM63 °FClear.9 mph77%30.09 "Hg10 mi
3:00 AM64 °FClear.9 mph83%30.09 "Hg10 mi
2:00 AM64 °FClear.8 mph83%30.09 "Hg10 mi
1:00 AM66 °FClear.1 mph83%30.12 "Hg10 mi
12:00 AM66 °FPassing clouds.9 mph83%30.12 "HgN/A
11:00 PM
Sat, Apr 25
68 °FPassing clouds.12 mph83%30.09 "HgN/A
10:00 PM70 °FPassing clouds.12 mph83%30.09 "HgN/A
9:00 PM70 °FPassing clouds.7 mph83%30.09 "HgN/A
8:00 PM70 °FClear.6 mph83%30.09 "Hg10 mi
7:00 PM68 °FPassing clouds.5 mph88%30.07 "HgN/A
6:00 PM70 °FPassing clouds.3 mph88%30.07 "HgN/A
5:00 PM70 °FPartly sunny.12 mph83%30.04 "HgN/A
4:45 PM70 °FPartly sunny.15 mph88%30.04 "Hg4 mi
4:00 PM77 °FScattered showers. Broken clouds.20 mph65%30.04 "Hg4 mi
3:00 PM81 °FScattered clouds.7 mph58%30.01 "HgN/A
2:00 PM81 °FScattered clouds.8 mph54%30.04 "HgN/A
1:00 PM79 °FBroken clouds.3 mph65%30.07 "HgN/A
12:00 PM75 °FBroken clouds.8 mph74%30.09 "HgN/A
11:00 AM75 °FScattered clouds.6 mph83%30.12 "HgN/A
10:00 AM77 °FScattered clouds.3 mph69%30.12 "HgN/A
9:00 AM75 °FScattered clouds.3 mph74%30.12 "HgN/A
8:00 AM70 °FPartly sunny.1 mph88%30.12 "HgN/A
7:00 AM66 °FPartly sunny.1 mph94%30.09 "HgN/A
6:00 AM68 °FPassing clouds.No wind88%30.09 "HgN/A
Weather by CustomWeather, © 2015

See weather overviewHow to use our weather pages